Location: Boiro
(42.6475°N, 8.8834°W)
Time: 02:21:30
(UTC+01:00)

Vanguard 3 - Pass Details

Date: 02 December 2021
Orbit: 508 x 3260 km, 33.3° (Epoch: 19 January)

Event Time Altitude Azimuth Distance (km) Brightness Sun altitude
Exits shadow 03:32:11 26° 154° (SSE) 4,928 10.9 -56.4°
Maximum altitude 03:35:16 27° 141° (SE) 4,847 10.9 -55.9°
Drops below altitude 10° 03:49:05 10° 93° (E) 5,718 11.8 -53.6°
Sets 03:53:59 0° 83° (E) 6,420 12.3 -52.8°
